Starlink 11142

operational
NORAD ID: 59957 Int'l Des: 2024-107 Owner: SPXS Country: US Constellation: starlink
LEOCIRCULAR

关于 Starlink 11142

正在加载描述...

实时位置

正在加载3D地球...

即将过境

高度历史

Altitude vs Time

uPlot chart will show altitude changes over time

两行轨道根数

1 59957U 24107N 26093.47899316 -.00005426 00000-0 -39964-4 0 9990
2 59957 53.1568 128.7483 0001489 48.9303 311.1843 15.69701723106051
Epoch: Apr 3, 2026 • Age: 18 hours

当前状态

高度 362.1 km
速度 7.69 km/s
星下点 -10.27°S, 162°W
发射日期 Jun 5, 2024
运行时间 1.8 years
类型 internet

技术详情

分类 Payload
质量 960.00 kg
干质量 910.00 kg
总质量 960.00 kg
长度 0.30 m
直径 4.10 m
跨度 29.00 m
形状 Box + pan
制造商 SPXS
平台类型 Starlink V2MD
阶段状态 In Orbit
所有者/国家 SPXS/US

大型星座

Loading constellations...